iso_date,epoch_date,Year,Hour,Min,DOY,POS_DOY,Lat,Lon,BP,Ts,Ta,has_bp,has_ts,has_ta,BuoyID,Buoy_Type,Buoy_Owner,Logistics,Hemisphere
2021-08-20T00:15:59Z,1629418559,2021,0,16,232.0111,232.0111,70.06531,-52.3623,-999.00,-999.00,-999.0,no,no,no,4435397,SPIT,USIABP,ICE-PPR<br>DiskoBay,North
2021-08-20T00:26:03Z,1629419164,2021,0,26,232.0181,232.0181,70.06535,-52.36203,-999.00,-999.00,-999.0,no,no,no,4435397,SPIT,USIABP,ICE-PPR<br>DiskoBay,North
2021-08-20T01:37:03Z,1629423423,2021,1,37,232.0674,232.0674,70.0652,-52.36285,-999.00,-999.00,-999.0,no,no,no,4435397,SPIT,USIABP,ICE-PPR<br>DiskoBay,North
2021-08-20T02:04:59Z,1629425100,2021,2,5,232.0868,232.0868,70.06514,-52.364,-999.00,-999.00,-999.0,no,no,no,4435397,SPIT,USIABP,ICE-PPR<br>DiskoBay,North
2021-08-20T02:34:56Z,1629426897,2021,2,35,232.1076,232.1076,70.06518,-52.36426,-999.00,-999.00,-999.0,no,no,no,4435397,SPIT,USIABP,ICE-PPR<br>DiskoBay,North
2021-08-20T03:06:02Z,1629428763,2021,3,6,232.1292,232.1292,70.06511,-52.36392,-999.00,-999.00,-999.0,no,no,no,4435397,SPIT,USIABP,ICE-PPR<br>DiskoBay,North
2021-08-20T04:35:02Z,1629434102,2021,4,35,232.191,232.191,70.06451,-52.36072,-999.00,-999.00,-999.0,no,no,no,4435397,SPIT,USIABP,ICE-PPR<br>DiskoBay,North
2021-08-20T05:04:59Z,1629435900,2021,5,5,232.2118,232.2118,70.0646,-52.35995,-999.00,-999.00,-999.0,no,no,no,4435397,SPIT,USIABP,ICE-PPR<br>DiskoBay,North
2021-08-20T05:33:56Z,1629437636,2021,5,34,232.2319,232.2319,70.06483,-52.35951,-999.00,-999.00,-999.0,no,no,no,4435397,SPIT,USIABP,ICE-PPR<br>DiskoBay,North
2021-08-20T06:04:01Z,1629439442,2021,6,4,232.2528,232.2528,70.06474,-52.35977,-999.00,-999.00,-999.0,no,no,no,4435397,SPIT,USIABP,ICE-PPR<br>DiskoBay,North
2021-08-20T06:32:58Z,1629441179,2021,6,33,232.2729,232.2729,70.06438,-52.36087,-999.00,-999.00,-999.0,no,no,no,4435397,SPIT,USIABP,ICE-PPR<br>DiskoBay,North
2021-08-20T07:02:55Z,1629442976,2021,7,3,232.2937,232.2937,70.06477,-52.35957,-999.00,-999.00,-999.0,no,no,no,4435397,SPIT,USIABP,ICE-PPR<br>DiskoBay,North
2021-08-20T07:33:01Z,1629444781,2021,7,33,232.3146,232.3146,70.06456,-52.36034,-999.00,-999.00,-999.0,no,no,no,4435397,SPIT,USIABP,ICE-PPR<br>DiskoBay,North
2021-08-20T08:02:58Z,1629446579,2021,8,3,232.3354,232.3354,70.06465,-52.36017,-999.00,-999.00,-999.0,no,no,no,4435397,SPIT,USIABP,ICE-PPR<br>DiskoBay,North
2021-08-20T08:33:04Z,1629448384,2021,8,33,232.3563,232.3563,70.06462,-52.36017,-999.00,-999.00,-999.0,no,no,no,4435397,SPIT,USIABP,ICE-PPR<br>DiskoBay,North
2021-08-20T09:03:01Z,1629450181,2021,9,3,232.3771,232.3771,70.06487,-52.36049,-999.00,-999.00,-999.0,no,no,no,4435397,SPIT,USIABP,ICE-PPR<br>DiskoBay,North
2021-08-20T09:31:58Z,1629451918,2021,9,32,232.3972,232.3972,70.06504,-52.36298,-999.00,-999.00,-999.0,no,no,no,4435397,SPIT,USIABP,ICE-PPR<br>DiskoBay,North
2021-08-20T10:02:55Z,1629453776,2021,10,3,232.4187,232.4187,70.06487,-52.36298,-999.00,-999.00,-999.0,no,no,no,4435397,SPIT,USIABP,ICE-PPR<br>DiskoBay,North
2021-08-20T11:00:57Z,1629457258,2021,11,1,232.459,232.459,69.98403,-52.35694,-999.00,-999.00,-999.0,no,no,no,4435397,SPIT,USIABP,ICE-PPR<br>DiskoBay,North
2021-08-20T11:31:03Z,1629459063,2021,11,31,232.4799,232.4799,69.97391,-52.31943,-999.00,-999.00,-999.0,no,no,no,4435397,SPIT,USIABP,ICE-PPR<br>DiskoBay,North
2021-08-20T12:01:00Z,1629460860,2021,12,1,232.5007,232.5007,69.96843,-52.27286,-999.00,-999.00,-999.0,no,no,no,4435397,SPIT,USIABP,ICE-PPR<br>DiskoBay,North
2021-08-20T12:30:57Z,1629462658,2021,12,31,232.5215,232.5215,69.97263,-52.27124,-999.00,-999.00,-999.0,no,no,no,4435397,SPIT,USIABP,ICE-PPR<br>DiskoBay,North
2021-08-20T13:30:00Z,1629466200,2021,13,30,232.5625,232.5625,69.92283,-52.13904,-999.00,-999.00,-999.0,no,no,no,4435397,SPIT,USIABP,ICE-PPR<br>DiskoBay,North
2021-08-20T14:00:57Z,1629468058,2021,14,1,232.584,232.584,69.86951,-52.039,-999.00,-999.00,-999.0,no,no,no,4435397,SPIT,USIABP,ICE-PPR<br>DiskoBay,North
2021-08-20T14:30:02Z,1629469803,2021,14,30,232.6042,232.6042,69.81912,-51.80261,-999.00,-999.00,-999.0,no,no,no,4435397,SPIT,USIABP,ICE-PPR<br>DiskoBay,North
2021-08-20T15:00:00Z,1629471600,2021,15,0,232.625,232.625,69.78865,-51.64279,-999.00,-999.00,-999.0,no,no,no,4435397,SPIT,USIABP,ICE-PPR<br>DiskoBay,North
2021-08-20T17:29:02Z,1629480542,2021,17,29,232.7285,232.7285,69.58745,-51.44827,-999.00,-999.00,-999.0,no,no,no,4435397,SPIT,USIABP,ICE-PPR<br>DiskoBay,North
2021-08-20T17:58:59Z,1629482340,2021,17,59,232.7493,232.7493,69.58221,-51.44183,-999.00,-999.00,-999.0,no,no,no,4435397,SPIT,USIABP,ICE-PPR<br>DiskoBay,North
2021-08-20T18:28:56Z,1629484137,2021,18,29,232.7701,232.7701,69.53928,-51.38144,-999.00,-999.00,-999.0,no,no,no,4435397,SPIT,USIABP,ICE-PPR<br>DiskoBay,North
2021-08-20T18:58:01Z,1629485882,2021,18,58,232.7903,232.7903,69.45882,-51.19883,-999.00,-999.00,-999.0,no,no,no,4435397,SPIT,USIABP,ICE-PPR<br>DiskoBay,North
2021-08-20T19:27:59Z,1629487679,2021,19,28,232.8111,232.8111,69.39006,-51.01987,-999.00,-999.00,-999.0,no,no,no,4435397,SPIT,USIABP,ICE-PPR<br>DiskoBay,North
2021-08-20T19:58:56Z,1629489537,2021,19,59,232.8326,232.8326,69.35496,-50.95227,-999.00,-999.00,-999.0,no,no,no,4435397,SPIT,USIABP,ICE-PPR<br>DiskoBay,North
2021-08-20T22:26:58Z,1629498419,2021,22,27,232.9354,232.9354,69.35466,-50.9539,-999.00,-999.00,-999.0,no,no,no,4435397,SPIT,USIABP,ICE-PPR<br>DiskoBay,North
2021-08-20T22:56:55Z,1629500216,2021,22,57,232.9562,232.9562,69.35466,-50.95407,-999.00,-999.00,-999.0,no,no,no,4435397,SPIT,USIABP,ICE-PPR<br>DiskoBay,North
2021-08-20T23:27:01Z,1629502021,2021,23,27,232.9771,232.9771,69.35477,-50.95441,-999.00,-999.00,-999.0,no,no,no,4435397,SPIT,USIABP,ICE-PPR<br>DiskoBay,North
2021-08-20T23:56:58Z,1629503819,2021,23,57,232.9979,232.9979,69.35496,-50.95451,-999.00,-999.00,-999.0,no,no,no,4435397,SPIT,USIABP,ICE-PPR<br>DiskoBay,North
2021-08-21T00:27:04Z,1629505624,2021,0,27,233.0188,233.0188,69.355,-50.95425,-999.00,-999.00,-999.0,no,no,no,4435397,SPIT,USIABP,ICE-PPR<br>DiskoBay,North
2021-08-21T00:57:01Z,1629507421,2021,0,57,233.0396,233.0396,69.35522,-50.95413,-999.00,-999.00,-999.0,no,no,no,4435397,SPIT,USIABP,ICE-PPR<br>DiskoBay,North
2021-08-21T01:25:58Z,1629509158,2021,1,26,233.0597,233.0597,69.36013,-50.95246,-999.00,-999.00,-999.0,no,no,no,4435397,SPIT,USIABP,ICE-PPR<br>DiskoBay,North
2021-08-21T01:56:03Z,1629510964,2021,1,56,233.0806,233.0806,69.35523,-50.95358,-999.00,-999.00,-999.0,no,no,no,4435397,SPIT,USIABP,ICE-PPR<br>DiskoBay,North
2021-08-21T02:26:00Z,1629512761,2021,2,26,233.1014,233.1014,69.35511,-50.95435,-999.00,-999.00,-999.0,no,no,no,4435397,SPIT,USIABP,ICE-PPR<br>DiskoBay,North
2021-08-21T03:26:03Z,1629516364,2021,3,26,233.1431,233.1431,69.35526,-50.95355,-999.00,-999.00,-999.0,no,no,no,4435397,SPIT,USIABP,ICE-PPR<br>DiskoBay,North
2021-08-21T03:56:00Z,1629518161,2021,3,56,233.1639,233.1639,69.35526,-50.95338,-999.00,-999.00,-999.0,no,no,no,4435397,SPIT,USIABP,ICE-PPR<br>DiskoBay,North
2021-08-21T04:25:58Z,1629519958,2021,4,26,233.1847,233.1847,69.35535,-50.95355,-999.00,-999.00,-999.0,no,no,no,4435397,SPIT,USIABP,ICE-PPR<br>DiskoBay,North
2021-08-21T04:55:03Z,1629521703,2021,4,55,233.2049,233.2049,69.35532,-50.95349,-999.00,-999.00,-999.0,no,no,no,4435397,SPIT,USIABP,ICE-PPR<br>DiskoBay,North
2021-08-21T05:25:00Z,1629523500,2021,5,25,233.2257,233.2257,69.35532,-50.95349,-999.00,-999.00,-999.0,no,no,no,4435397,SPIT,USIABP,ICE-PPR<br>DiskoBay,North
2021-08-21T05:54:57Z,1629525298,2021,5,55,233.2465,233.2465,69.35532,-50.95349,-999.00,-999.00,-999.0,no,no,no,4435397,SPIT,USIABP,ICE-PPR<br>DiskoBay,North
2021-08-21T07:24:57Z,1629530698,2021,7,25,233.309,233.309,69.35511,-50.95413,-999.00,-999.00,-999.0,no,no,no,4435397,SPIT,USIABP,ICE-PPR<br>DiskoBay,North
2021-08-21T07:54:02Z,1629532443,2021,7,54,233.3292,233.3292,69.35473,-50.95432,-999.00,-999.00,-999.0,no,no,no,4435397,SPIT,USIABP,ICE-PPR<br>DiskoBay,North
2021-08-21T08:24:00Z,1629534240,2021,8,24,233.35,233.35,69.35482,-50.95432,-999.00,-999.00,-999.0,no,no,no,4435397,SPIT,USIABP,ICE-PPR<br>DiskoBay,North
2021-08-21T08:53:57Z,1629536037,2021,8,54,233.3708,233.3708,69.35487,-50.95441,-999.00,-999.00,-999.0,no,no,no,4435397,SPIT,USIABP,ICE-PPR<br>DiskoBay,North
2021-08-21T09:24:02Z,1629537843,2021,9,24,233.3917,233.3917,69.35451,-50.95407,-999.00,-999.00,-999.0,no,no,no,4435397,SPIT,USIABP,ICE-PPR<br>DiskoBay,North
2021-08-21T09:54:00Z,1629539640,2021,9,54,233.4125,233.4125,69.35448,-50.95333,-999.00,-999.00,-999.0,no,no,no,4435397,SPIT,USIABP,ICE-PPR<br>DiskoBay,North
2021-08-21T10:23:57Z,1629541437,2021,10,24,233.4333,233.4333,69.36332,-50.94818,-999.00,-999.00,-999.0,no,no,no,4435397,SPIT,USIABP,ICE-PPR<br>DiskoBay,North
2021-08-21T10:53:02Z,1629543182,2021,10,53,233.4535,233.4535,69.33714,-51.20714,-999.00,-999.00,-999.0,no,no,no,4435397,SPIT,USIABP,ICE-PPR<br>DiskoBay,North
2021-08-21T11:22:59Z,1629544980,2021,11,23,233.4743,233.4743,69.29564,-51.47244,-999.00,-999.00,-999.0,no,no,no,4435397,SPIT,USIABP,ICE-PPR<br>DiskoBay,North
2021-08-21T11:52:56Z,1629546777,2021,11,53,233.4951,233.4951,69.25161,-51.75705,-999.00,-999.00,-999.0,no,no,no,4435397,SPIT,USIABP,ICE-PPR<br>DiskoBay,North
2021-08-21T12:23:02Z,1629548582,2021,12,23,233.516,233.516,69.19598,-52.01151,-999.00,-999.00,-999.0,no,no,no,4435397,SPIT,USIABP,ICE-PPR<br>DiskoBay,North
2021-08-21T12:52:59Z,1629550380,2021,12,53,233.5368,233.5368,69.18156,-52.14545,-999.00,-999.00,-999.0,no,no,no,4435397,SPIT,USIABP,ICE-PPR<br>DiskoBay,North
2021-08-21T13:21:56Z,1629552116,2021,13,22,233.5569,233.5569,69.18711,-52.18491,-999.00,-999.00,-999.0,no,no,no,4435397,SPIT,USIABP,ICE-PPR<br>DiskoBay,North
2021-08-21T14:51:56Z,1629557516,2021,14,52,233.6194,233.6194,69.18416,-52.1976,-999.00,-999.00,-999.0,no,no,no,4435397,SPIT,USIABP,ICE-PPR<br>DiskoBay,North
2021-08-21T18:20:00Z,1629570001,2021,18,20,233.7639,233.7639,69.23214,-51.13101,-999.00,-999.00,-999.0,no,no,no,4435397,SPIT,USIABP,ICE-PPR<br>DiskoBay,North
2021-08-21T18:49:58Z,1629571798,2021,18,50,233.7847,233.7847,69.22194,-51.09534,-999.00,-999.00,-999.0,no,no,no,4435397,SPIT,USIABP,ICE-PPR<br>DiskoBay,North
2021-08-21T19:20:03Z,1629573604,2021,19,20,233.8056,233.8056,69.22205,-51.09537,-999.00,-999.00,-999.0,no,no,no,4435397,SPIT,USIABP,ICE-PPR<br>DiskoBay,North
2021-08-21T19:50:00Z,1629575401,2021,19,50,233.8264,233.8264,69.22199,-51.09537,-999.00,-999.00,-999.0,no,no,no,4435397,SPIT,USIABP,ICE-PPR<br>DiskoBay,North
2021-08-21T20:19:58Z,1629577198,2021,20,20,233.8472,233.8472,69.22199,-51.09537,-999.00,-999.00,-999.0,no,no,no,4435397,SPIT,USIABP,ICE-PPR<br>DiskoBay,North
2021-08-21T21:19:00Z,1629580740,2021,21,19,233.8882,233.8882,69.22202,-51.09515,-999.00,-999.00,-999.0,no,no,no,4435397,SPIT,USIABP,ICE-PPR<br>DiskoBay,North
2021-08-21T21:48:57Z,1629582538,2021,21,49,233.909,233.909,69.22215,-51.09464,-999.00,-999.00,-999.0,no,no,no,4435397,SPIT,USIABP,ICE-PPR<br>DiskoBay,North
2021-08-21T22:19:03Z,1629584343,2021,22,19,233.9299,233.9299,69.22208,-51.09474,-999.00,-999.00,-999.0,no,no,no,4435397,SPIT,USIABP,ICE-PPR<br>DiskoBay,North
2021-08-21T22:49:00Z,1629586140,2021,22,49,233.9507,233.9507,69.22204,-51.09525,-999.00,-999.00,-999.0,no,no,no,4435397,SPIT,USIABP,ICE-PPR<br>DiskoBay,North
2021-08-21T23:18:57Z,1629587938,2021,23,19,233.9715,233.9715,69.22195,-51.09491,-999.00,-999.00,-999.0,no,no,no,4435397,SPIT,USIABP,ICE-PPR<br>DiskoBay,North
